STARLINK-4795 (53856 NORAD) Tracking and Keplerian Element Data

This shows tracking and keplerian element data for the satellite.

Feedback or suggestion? Click here.




ElementValue
Catalog53856
NameSTARLINK-4795
Epoch Orbit130
Epoch Day324.91667824
Epoch Year2022
RAAN307.6113
Inclination53.2142
Eccentricity0.000406
Argument of Perigee6.0982
Mean Anonmoly224.3979
Mean Motion15.73248367
Decay Rate-0.00035214
L11 53856U 22114AQ 22324.91667824 -.00035214 00000+0 -24686-3 0 9998
L22 53856 53.2142 307.6113 0004060 6.0982 224.3979 15.73248367 1308



Live tracking and technical data element details for STARLINK-4795 (NORAD 53856). STARLINK-4795 can be tracked NOW for your location showing map with azimuth and elevation plus other details from your city location.







IsCatalogInMostPopularTable: catalog: 53856, numindb: -1

Insert: records affected: 1


GetName: 53856 STARLINK-4795

Hit Count: inserted at: Thu, 08 Dec 2022 09:12:34 GMT